Location: Big Meadows
(38.5260°N, 78.4400°W)
Time: 11:19:30
(UTC-04:00)

H-2A R/B - Visible Passes

Search period start: 23 August 2014 00:00
Search period end: 02 September 2014 00:00
Orbit: 734 x 840 km, 98.5° (Epoch: 23 August)

Date Brightness Start Highest point End Pass type
(mag) Time Alt. Az. Time Alt. Az. Time Alt. Az.
23 Aug 4.8 00:58:11 11° NW 00:58:11 11° NW 00:58:26 10° NW visible
23 Aug 3.9 22:46:50 19° NE 22:46:50 19° NE 22:48:59 10° NNE visible
24 Aug 4.4 00:27:30 18° NW 00:27:30 18° NW 00:28:55 10° NNW visible
24 Aug 4.3 22:16:09 11° NE 22:16:09 11° NE 22:16:57 10° NE visible
24 Aug 4.0 23:56:49 25° NNW 23:56:49 25° NNW 23:58:48 10° NNW visible
25 Aug 3.8 23:26:08 25° N 23:26:08 25° N 23:28:17 10° N visible
26 Aug 3.9 22:55:27 20° NNE 22:55:27 20° NNE 22:57:22 10° N visible
27 Aug 4.6 00:36:07 14° NW 00:36:07 14° NW 00:36:55 10° NW visible
27 Aug 4.2 22:24:46 13° NE 22:24:46 13° NE 22:25:45 10° NNE visible
28 Aug 4.3 00:05:26 20° NNW 00:05:26 20° NNW 00:06:56 10° NNW visible
28 Aug 4.0 23:34:45 22° N 23:34:45 22° N 23:36:31 10° N visible
29 Aug 4.0 23:04:04 19° NNE 23:04:04 19° NNE 23:05:43 10° N visible
30 Aug 4.9 00:44:44 11° NW 00:44:44 11° NW 00:44:51 10° NW visible
30 Aug 4.2 22:33:23 13° NE 22:33:23 13° NE 22:34:21 10° NNE visible
31 Aug 4.6 00:14:03 16° NNW 00:14:03 16° NNW 00:15:01 10° NNW visible
31 Aug 4.3 23:43:22 19° N 23:43:22 19° N 23:44:43 10° N visible
01 Sep 4.2 23:12:41 18° N 23:12:41 18° N 23:14:01 10° N visible
